South Coast: Past 24 Hour Conditions

 

St.Paul Island

04:00 AM ADT 01 September 2014
This table is a summary of hourly weather conditions for the past 24 hours.
Date / Time
(ADT)
Wind(knots) Conditions Visibility(km) Pressure(kPa) Air tempC) Relative humidity(%) Dew pointC) Humidex
01 September 2014
4:00 WNW 6 N/A N/A 101.1 16 98 16 *
3:00 W 12 N/A N/A 101.1 17 98 16 *
2:00 W 15 N/A N/A 101.1 17 98 17 *
1:00 W 19 N/A N/A 101.0 17 97 17 *
0:00 W 23 N/A N/A 101.0 18 95 17 *
31 August 2014
23:00 W 22 N/A N/A 101.0 18 89 16 *
22:00 WSW 15 N/A N/A 101.1 18 88 16 *
21:00 SW 16 N/A N/A 101.1 19 85 16 *
20:00 SW 14 N/A N/A 101.1 20 79 16 25
19:00 SW 14 gust 19 N/A N/A 101.1 19 85 16 *
18:00 SW 19 N/A N/A 101.1 19 83 16 *
17:00 SW 13 gust 22 N/A N/A 101.2 19 78 15 *
16:00 SW 14 gust 20 N/A N/A 101.2 19 79 15 *
15:00 WSW 11 gust 17 N/A N/A 101.2 20 73 15 *
14:00 SSW 12 gust 21 N/A N/A 101.3 19 77 15 *
13:00 WSW 20 N/A N/A 101.3 17 84 15 *
12:00 WSW 24 gust 31 N/A N/A 101.4 18 80 14 *
11:00 WSW 26 N/A N/A 101.4 18 79 14 *
10:00 WSW 29 gust 34 N/A N/A 101.4 17 80 14 *
9:00 WSW 30 N/A N/A 101.4 17 80 13 *
8:00 WSW 29 N/A N/A 101.5 17 81 13 *
7:00 WSW 29 gust 34 N/A N/A 101.5 17 79 13 *
6:00 WSW 29 gust 38 N/A N/A 101.5 17 80 13 *
5:00 WSW 34 gust 39 N/A N/A 101.4 17 78 13 *
4:00 WSW 33 gust 39 N/A N/A 101.5 17 79 13 *
 
Map of Atlantic - Newfoundland marine weather areas Southwestern Grand Banks - 44138 Banquereau - 44139 Tail of the Bank - 44140 Nickerson Bank - 44251 Northeast Burgeo Bank - 44255 Blanc-Sablon Airport Cap Whittle Chevery Natashquan Airport Heath Point Miscou Island Grand Étang Ingonish Beach North Mountain St.Paul Island J.A. Douglas McCurdy Sydney Airport Charlottetown Airport East Point North Cape Argentia Bonavista Burgeo Cape Race Corner Brook Daniel's Harbour Englee Ferolle Point La Scie Port aux Basques Rocky Harbour Sagona Island St. Anthony Airport St. John's Int'l Airport St. Lawrence Stephenville Airport Twillingate Winterland Wreckhouse Cartwright Airport Mary's Harbour Grates Cove Pool's Island Marticot Island Long Pond Îles de la Madeleine Airport
Legend: buoyBuoy land stationLand Station